Погода в Кирсановке

Россия / Воронежская область     51°27′35″N   41°47′15″E
темп.,
°C
ветер,
м/с
пор.,
м/с
влажн.,
%
обл.,
%
осадки,
мм/ч
давл.,
гПа
погр.,
м
21 апреля, ср
ср2100:00+9ююв46911 3.2 1004132
03:00+9ююв7159550 3.3 1005515
06:00+9ю71392100 0.2 1006723
09:00+10ю8128789 0.6 1008915
12:00+9ююз8128897 0.4 1010830
15:00+9зюз71075100 0.4 10141101
18:00+9ю368354 0.0 1015431
21:00+7ююв4691100 0.1 101797
22 апреля, чт
чт2200:00+6ююз36895 0.0 101892
03:00+5юз37905 0.0 1019119
06:00+5зюз35925 0.0 1020118
09:00+10юз347416 0.0 1021537
12:00+14юз466028 0.6 10211490
15:00+14зюз3553100 0.9 10211502
18:00+12ююв3470100 0.0 102177
21:00+11ююз337331 0.0 102250
23 апреля, пт
пт2300:00+9ю227314 0.0 102212
03:00+9ю227390 0.0 102130
06:00+10ююв2271100 0.0 102132
09:00+13ююв356364 0.0 1021356
12:00+16ююв334934 0.7 10201873
15:00+15юв445799 1.4 1018956
18:00+12юв4679100 3.1 1018278
21:00+9вюв489012 3.6 1017173
24 апреля, сб
сб2400:00+10ююв4888100 0.0 1016196
03:00+8ююв368888 0.0 101497
06:00+9ю4884100 0.0 1013185
09:00+12ю6107299 0.1 1011690
12:00+14юз91260100 0.9 10101798
15:00+8з7107879 1.9 10121093
18:00+9зюз610665 0.2 10131310
21:00+5юз368053 0.2 1014117
25 апреля, вс
вс2500:00+4юз358294 0.0 101498
03:00+4юз5691100 0.5 1014487
06:00+4зюз3396100 1.6 1014534
09:00+3зюз4698100 4.0 1015431
12:00+8зюз357165 1.3 10151109
15:00+9з675885 2.9 10151565
18:00+8зюз586236 0.6 1015565
21:00+4юз378292 0.8 1017126